Location: Newark
(42.8481°N, 0.4872°E)
Time: 08:47:54
(UTC+00:00)

Vanguard 1 - Pass Details

Date: 01 November 2020
Orbit: 650 x 3833 km, 34.2° (Epoch: 26 November)

Event Time Altitude Azimuth Distance (km) Brightness Sun altitude
Rises 10:35:15 0° 221° (SW) 6,539 14.6 30.5°
Reaches altitude 10° 10:39:19 10° 215° (SW) 5,874 14.6 30.7°
Maximum altitude 10:57:56 48° 149° (SSE) 4,472 15.0 31.6°
Drops below altitude 10° 11:19:05 10° 84° (E) 6,627 14.4 32.3°
Sets 11:23:59 0° 80° (E) 7,400 14.5 32.3°
